Vertical_Velocity
-0 -4 -2 -0 -3 -2 -1 -1 -6 1 -1 -4 -16 -7 -4 0 -3 -1 -0 -0 1 1 -2 -2 -0 1 5 3 7 -4 2 3 -1 -0 2 3 9 7 1 0 -2 1 -0 -1
-1 -3 -2 -1 -2 -3 -3 -4 -7 -3 -1 -13 -4 -3 -4 -2 -3 -3 -2 -2 1 2 0 -5 -4 2 6 3 0 -7 -3 -6 -6 -4 -3 6 0 -1 2 1 4 4 -3 -1
-2 -2 -3 -2 -3 -3 -2 -6 -5 -4 -4 -0 -2 -3 -1 -2 -2 -1 1 -2 -4 1 -1 0 -2 -2 -2 -0 -2 8 -2 1 1 2 2 10 -4 -3 1 -6 -6 7 5 4
-3 -2 -3 -2 -2 -3 -3 -2 -1 -3 -7 -5 -3 -2 -1 -1 -2 -1 -1 0 1 -2 -4 -0 0 -2 1 2 1 -2 -8 1 -1 2 0 -2 14 3 -1 -8 3 -6 7 0
-2 -3 -2 -3 -3 -1 1 -3 -4 -2 -1 -2 -3 -1 -2 -2 -0 -0 -0 1 4 2 2 5 -6 -1 -3 -6 0 -3 0 1 1 -1 2 -0 2 5 5 3 0 -2 1 1
-2 -2 -2 -2 -2 -4 -2 -3 -1 0 1 -1 -2 0 -1 -0 -1 -0 0 -0 -2 -0 -1 4 1 1 -1 -2 -6 -3 -3 0 -2 -2 -0 -0 -4 -7 2 3 5 2 -6 3
-1 -2 -3 -3 -3 -1 -2 -2 -1 -3 -1 -1 -2 1 -1 -1 -0 -1 -1 -0 -0 -0 -3 -3 -1 1 0 -1 -3 -4 -4 -0 -2 -4 -0 -10 -1 3 3 1 2 7 10 -0
-1 -0 -2 -4 -2 -2 -2 -2 -2 -3 -3 0 0 -1 -1 -0 -0 -5 4 2 -1 -2 -2 -4 -2 -3 -0 -0 0 -2 -3 -3 -1 -3 -1 -2 -1 -6 -5 -2 2 3 2 3
0 -1 -2 -0 -1 -4 -4 -2 -0 -2 -2 -2 0 -1 -2 -5 -2 -2 -1 -1 -2 -5 -7 -6 -3 -2 -2 -0 2 0 1 -3 -2 -0 -1 -2 -0 1 -2 -1 -2 -4 -2 6
-4 -2 -1 -3 -1 -1 0 -3 -3 0 -4 -1 -1 -0 -1 1 1 -1 -3 -1 -2 -3 -0 -2 -1 -2 -1 -1 -2 -4 -2 -2 -2 -2 -2 -3 -2 -1 1 -3 -5 1 2 -0
-5 -3 -1 -3 -0 -2 -2 -2 1 3 -1 -0 -0 0 -1 -0 1 0 1 -3 -3 -3 -4 -1 -1 -1 -1 -3 -1 -1 -1 -2 -1 -1 -1 -5 -3 -5 -3 -1 -1 -1 -1 2
-2 -3 -1 -2 -2 -0 -1 -1 -2 -2 3 1 -3 -1 1 1 0 -1 2 -1 -1 -2 -3 -3 -2 -3 -1 0 -4 -1 -2 -0 -3 -4 -6 -2 -0 -2 -3 -2 -2 -2 -1 -1
-3 -3 -2 -1 -2 -2 -1 -2 -2 -4 -3 1 -4 1 2 3 1 2 -2 1 -0 2 3 -0 -1 -2 -1 -1 -4 0 -0 -0 -3 -1 -4 -2 -2 -1 -3 -2 -2 -2 -4 -3
-1 -1 -2 -3 -3 -1 -0 -2 -3 -1 -7 -4 -2 -1 0 1 1 1 1 -1 -2 0 1 1 3 3 1 -2 -2 -3 6 1 1 -2 1 -5 -1 -1 -1 -1 -1 -2 -1 -2
1 -1 -2 -1 -3 -1 -0 1 -0 -2 2 -5 -1 1 2 1 -0 1 1 1 1 0 -2 1 -0 -0 -1 0 -2 -4 -3 -1 -3 -4 1 -2 -1 -1 -2 -1 -2 0 -1 -0
-0 0 -1 -0 1 -1 -1 -7 -3 -1 -2 -7 -9 -5 -1 -1 -2 -2 0 0 1 1 1 2 -2 3 1 -2 -10 7 -1 -2 -3 -3 -0 1 -3 -1 -1 -1 -2 -1 -1 -1
-2 1 -1 -1 -1 -0 3 2 2 2 -2 -3 -6 -3 -0 -1 -0 0 -1 -1 -2 2 2 -3 2 2 2 -4 -9 -2 -2 -2 -1 -1 -3 1 -0 -2 -1 -2 -1 -2 -1 -1
-0 1 -1 -3 -0 0 -3 -2 -2 -1 3 -3 -1 -2 -4 1 -2 -2 0 -0 0 -3 -2 -2 1 -1 1 -14 -1 -3 -4 -3 -1 -1 -0 -0 0 -0 -0 -1 -1 -1 -2 -0
1 -2 -1 -3 -2 -4 -1 -0 -2 -6 12 -2 -3 2 -3 -2 -1 -0 -1 -1 -3 -8 -2 2 -0 1 -13 0 -1 -0 -2 -3 -0 -3 -1 -0 -0 -1 -1 -1 -1 -0 -1 -1
-1 -4 0 -7 -3 -1 1 -12 -3 -2 -1 -3 -4 3 -2 4 3 -2 3 0 -3 -1 -3 1 -4 -17 12 -3 -1 0 0 0 -1 -1 3 -3 3 -2 0 2 1 0 0 -2
6 -5 2 1 -0 -3 1 -3 -0 -1 -2 -3 -3 -0 -1 1 1 1 1 0 -4 2 -0 -1 -2 -16 3 -0 -4 -0 1 0 -0 3 1 0 -0 3 3 4 4 4 3 2
2 3 -1 2 -2 2 -3 -3 -3 -3 -5 -4 -4 1 -1 -1 4 1 1 -1 1 -1 1 -3 -5 -0 1 -2 -2 -2 2 1 3 1 1 -1 3 2 3 7 5 -2 -1 2
1 4 8 -0 -3 -4 -4 -0 -8 -6 -0 2 1 1 0 -1 2 2 -0 1 1 1 1 -5 -7 -2 -0 -1 -3 -2 -0 2 -0 0 -2 2 2 -1 3 3 1 -1 2 -2
4 11 2 -9 -7 -2 -3 9 -4 -3 2 2 0 4 0 0 3 -1 -0 4 -2 0 -3 -10 2 -1 -1 -1 -2 1 -1 2 -0 1 2 1 -2 2 -0 -1 3 2 0 -1
9 14 -17 -10 7 1 5 -1 6 4 3 3 3 4 5 4 1 -1 2 -1 -3 -6 -10 -3 -1 -2 3 2 -0 2 -2 1 -2 -1 -1 -3 -3 -3 -1 -2 -1 -1 1 2
9 -4 -14 -8 4 4 7 3 6 6 5 3 7 6 2 1 -2 -2 -3 0 -12 -1 -2 5 -1 3 4 1 -0 -0 -2 1 0 -1 -2 -1 -1 -1 -1 -0 -2 -1 -0 0
-8 -15 -4 -3 4 -2 9 9 5 8 4 6 13 1 4 3 1 -7 -6 -22 4 7 5 2 -1 4 4 3 0 -2 -1 -0 1 -1 0 -1 -2 -1 -1 3 -3 -0 -0 1
Height
3139 3133 3128 3122 3116 3110 3103 3098 3092 3085 3078 3070 3057 3057 3057 3056 3053 3047 3043 3036 3029 3025 3020 3016 3011 3007 3002 2995 2987 2980 2976 2973 2969 2969 2968 2963 2960 2954 2951 2952 2953 2953 2956 2965
3138 3132 3127 3121 3115 3109 3103 3098 3093 3085 3078 3069 3065 3063 3060 3057 3053 3049 3044 3039 3034 3029 3024 3019 3014 3011 3007 3000 2993 2985 2983 2980 2974 2971 2972 2969 2960 2958 2954 2955 2956 2961 2960 2970
3137 3132 3126 3120 3114 3108 3102 3097 3092 3086 3079 3074 3070 3065 3061 3057 3053 3048 3044 3041 3036 3031 3025 3021 3017 3012 3009 3003 2997 2993 2988 2987 2986 2988 2987 2982 2973 2966 2960 2959 2962 2967 2969 2969
3137 3132 3126 3120 3114 3108 3103 3098 3094 3089 3084 3077 3072 3068 3063 3059 3055 3051 3046 3040 3036 3031 3026 3021 3018 3015 3010 3006 3001 2996 2991 2989 2988 2988 2987 2985 2983 2977 2974 2970 2970 2971 2973 2969
3137 3132 3126 3120 3114 3108 3104 3099 3095 3089 3084 3079 3074 3069 3065 3060 3056 3052 3048 3043 3038 3033 3028 3024 3018 3015 3012 3008 3004 2999 2995 2992 2989 2988 2986 2986 2985 2983 2980 2977 2977 2976 2974 2972
3137 3132 3126 3120 3114 3108 3103 3100 3095 3090 3085 3080 3075 3071 3066 3061 3056 3053 3048 3043 3039 3035 3030 3025 3020 3017 3014 3012 3008 3002 2997 2994 2989 2988 2986 2985 2987 2984 2983 2982 2981 2979 2975 2975
3136 3131 3126 3120 3114 3109 3104 3099 3095 3090 3086 3081 3077 3072 3068 3063 3058 3054 3050 3045 3040 3036 3030 3025 3020 3017 3013 3012 3010 3006 3001 2997 2993 2989 2985 2993 2993 2989 2986 2984 2983 2982 2980 2977
3135 3131 3125 3120 3114 3109 3103 3098 3094 3089 3085 3081 3077 3073 3069 3064 3059 3055 3049 3045 3041 3035 3029 3024 3020 3017 3015 3012 3009 3007 3004 3000 2997 2995 2992 2994 2991 2989 2986 2984 2984 2980 2979 2978
3134 3130 3124 3119 3113 3107 3102 3097 3092 3088 3083 3079 3075 3071 3068 3064 3059 3055 3050 3045 3040 3034 3028 3025 3023 3020 3017 3013 3011 3008 3005 3003 3002 2998 2997 2998 2993 2989 2986 2984 2983 2980 2978 2976
3132 3127 3122 3117 3113 3107 3102 3097 3091 3085 3081 3077 3072 3069 3066 3061 3057 3053 3048 3044 3039 3034 3029 3025 3023 3021 3019 3014 3011 3007 3005 3003 3001 2999 2998 2996 2993 2990 2986 2986 2990 2982 2979 2977
3128 3124 3120 3115 3110 3105 3101 3096 3089 3083 3078 3074 3070 3066 3063 3059 3056 3052 3048 3044 3038 3032 3029 3027 3025 3021 3018 3015 3012 3008 3006 3003 3001 2999 2997 2996 2992 2991 2989 2988 2984 2982 2980 2978
3124 3120 3117 3111 3107 3103 3098 3093 3087 3080 3074 3071 3066 3063 3060 3056 3052 3049 3046 3044 3039 3035 3032 3029 3024 3020 3016 3013 3011 3007 3005 3005 3003 3001 2997 2994 2991 2989 2987 2986 2984 2982 2980 2978
3120 3116 3113 3108 3104 3099 3094 3088 3083 3077 3070 3067 3063 3060 3055 3052 3048 3045 3044 3040 3037 3033 3029 3025 3022 3019 3013 3010 3007 3004 3001 3000 2997 2996 2993 2990 2988 2986 2985 2984 2983 2982 2980 2978
3116 3112 3108 3105 3100 3095 3090 3085 3079 3074 3068 3060 3059 3053 3049 3045 3042 3040 3038 3037 3033 3030 3026 3022 3018 3014 3010 3005 3003 2999 2998 2995 2993 2990 2988 2987 2985 2984 2982 2981 2979 2979 2978 2978
3111 3107 3103 3100 3096 3092 3087 3081 3076 3070 3070 3061 3051 3046 3042 3039 3036 3035 3034 3033 3030 3026 3021 3017 3013 3008 3005 3000 2997 2992 2991 2990 2990 2987 2985 2983 2982 2980 2979 2978 2976 2975 2975 2975
3106 3102 3098 3094 3092 3087 3082 3076 3072 3065 3059 3052 3045 3039 3035 3032 3031 3030 3030 3028 3025 3022 3017 3011 3007 3004 3002 2996 2990 2989 2986 2985 2984 2984 2982 2980 2979 2977 2976 2974 2973 2972 2971 2970
3100 3096 3092 3088 3085 3083 3080 3074 3068 3061 3054 3048 3039 3035 3033 3031 3029 3027 3025 3023 3020 3016 3011 3004 3001 2999 2998 2990 2985 2983 2982 2980 2980 2979 2978 2977 2976 2974 2973 2972 2970 2969 2968 2967
3094 3090 3086 3082 3078 3075 3071 3066 3061 3055 3050 3043 3036 3033 3030 3027 3024 3023 3020 3018 3014 3009 3004 2998 2993 2991 2989 2983 2981 2979 2977 2976 2976 2975 2974 2973 2972 2970 2969 2968 2967 2966 2965 2963
3088 3083 3079 3073 3070 3065 3062 3054 3050 3044 3042 3037 3033 3030 3027 3021 3020 3018 3015 3012 3007 3003 2997 2993 2989 2981 2978 2977 2975 2974 2973 2972 2972 2971 2970 2969 2968 2967 2965 2964 2963 2962 2960 2959
3080 3077 3073 3063 3062 3057 3053 3042 3035 3031 3030 3029 3028 3025 3023 3021 3016 3012 3012 3005 3001 2994 2990 2985 2979 2971 2972 2971 2970 2969 2968 2967 2967 2965 2965 2963 2962 2961 2960 2959 2957 2956 2955 2954
3074 3069 3066 3061 3055 3050 3047 3037 3033 3030 3027 3024 3023 3020 3018 3014 3013 3010 3009 3002 2997 2989 2985 2982 2972 2963 2965 2965 2965 2964 2963 2962 2961 2960 2959 2958 2957 2955 2953 2952 2950 2948 2947 2947
3067 3064 3058 3052 3050 3041 3038 3031 3028 3025 3022 3018 3016 3015 3012 3010 3007 3005 3000 2997 2992 2985 2980 2977 2964 2961 2960 2960 2959 2959 2958 2957 2955 2954 2953 2951 2950 2948 2946 2944 2942 2940 2939 2937
3060 3057 3050 3050 3042 3035 3026 3020 3018 3018 3014 3012 3010 3007 3006 3001 3001 2997 2995 2988 2984 2979 2974 2965 2958 2957 2956 2955 2954 2953 2952 2951 2950 2948 2947 2944 2942 2939 2937 2935 2932 2929 2928 2926
3052 3046 3040 3039 3028 3020 3014 3013 3010 3011 3008 3006 3003 3000 2999 2995 2993 2991 2986 2981 2977 2971 2965 2956 2956 2954 2951 2949 2948 2947 2946 2945 2944 2941 2938 2935 2932 2929 2925 2921 2918 2916 2916 2914
3041 3036 3025 3015 3015 3010 3009 3005 3004 3004 3002 3000 2995 2992 2991 2987 2986 2982 2979 2975 2967 2960 2954 2952 2950 2947 2945 2943 2941 2940 2939 2937 2935 2931 2928 2925 2922 2919 2916 2913 2909 2906 2905 2904
3025 3012 3005 3004 3003 3003 2999 2996 2996 2997 2995 2991 2988 2983 2981 2977 2976 2971 2967 2962 2953 2951 2948 2946 2943 2941 2939 2937 2935 2933 2930 2928 2926 2923 2920 2918 2916 2913 2909 2906 2902 2900 2897 2895
3000 2990 2989 2993 2991 2990 2988 2986 2985 2987 2985 2983 2980 2976 2973 2967 2963 2957 2953 2947 2947 2944 2941 2939 2936 2934 2932 2929 2927 2924 2923 2921 2918 2916 2913 2910 2908 2905 2902 2899 2895 2893 2890 2888